N174K KARR-KARR

Flight info

Callsign N174K
Flight time N/A
Altitude 8500
Route WEST DEPARTURE
Aircraft C172/L-V/N

Departure

Time 2026-04-26 20:08
Airport Aurora Municipal Airport (KARR)

Arrival

Time N/A
Airport Aurora Municipal Airport (KARR)
Time Latitude Longitude Altitude Speed Heading
2026-04-26 19:46 41.76840 -88.46652 707 ft 0 kts 141°
2026-04-26 20:02 41.76849 -88.46662 699 ft 2 kts 141°
2026-04-26 20:02 41.76853 -88.46667 701 ft 0 kts 140°
2026-04-26 20:02 41.76852 -88.46665 700 ft 2 kts 126°
2026-04-26 20:03 41.76865 -88.46664 701 ft 3 kts 269°
2026-04-26 20:03 41.76884 -88.46685 707 ft 9 kts 19°
2026-04-26 20:03 41.76929 -88.46709 708 ft 7 kts 257°
2026-04-26 20:03 41.76926 -88.46830 707 ft 20 kts 268°
2026-04-26 20:04 41.76921 -88.47012 706 ft 16 kts 276°
2026-04-26 20:04 41.76921 -88.47142 705 ft 14 kts 266°
2026-04-26 20:04 41.76921 -88.47262 705 ft 11 kts 272°
2026-04-26 20:04 41.76919 -88.47401 706 ft 25 kts 269°
2026-04-26 20:05 41.76916 -88.47682 708 ft 29 kts 268°
2026-04-26 20:05 41.76913 -88.47940 708 ft 26 kts 269°
2026-04-26 20:05 41.76911 -88.48169 709 ft 23 kts 270°
2026-04-26 20:05 41.76909 -88.48373 710 ft 21 kts 269°
2026-04-26 20:06 41.76916 -88.48517 710 ft 10 kts 320°
2026-04-26 20:06 41.76941 -88.48526 710 ft 0 kts
2026-04-26 20:06 41.76964 -88.48527 710 ft 11 kts 359°
2026-04-26 20:06 41.77016 -88.48372 700 ft 34 kts 90°
2026-04-26 20:07 41.77021 -88.47852 708 ft 75 kts 88°
2026-04-26 20:07 41.77038 -88.47046 729 ft 94 kts 94°
2026-04-26 20:07 41.77045 -88.46148 855 ft 98 kts 94°
2026-04-26 20:07 41.77061 -88.45283 1156 ft 86 kts 91°
2026-04-26 20:08 41.77516 -88.44926 1479 ft 97 kts
2026-04-26 20:08 41.78045 -88.45482 1588 ft 115 kts 282°
2026-04-26 20:08 41.78062 -88.46610 1657 ft 127 kts 267°
2026-04-26 20:08 41.78056 -88.47814 1723 ft 132 kts 269°
2026-04-26 20:09 41.78057 -88.48771 1859 ft 129 kts 275°
2026-04-26 20:09 41.78280 -88.50208 2117 ft 132 kts 282°
2026-04-26 20:09 41.78410 -88.51405 2260 ft 131 kts 276°
2026-04-26 20:09 41.78461 -88.52617 2442 ft 127 kts 273°
2026-04-26 20:10 41.78540 -88.53769 2616 ft 125 kts 274°
2026-04-26 20:10 41.78585 -88.55087 2760 ft 129 kts 272°
2026-04-26 20:10 41.78674 -88.56156 2946 ft 126 kts 276°
2026-04-26 20:10 41.78750 -88.56931 3057 ft 127 kts 275°
2026-04-26 20:11 41.79247 -88.59646 3353 ft 135 kts 287°
2026-04-26 20:11 41.79512 -88.60826 3656 ft 127 kts 284°
2026-04-26 20:12 41.79961 -88.63237 3899 ft 129 kts 283°
2026-04-26 20:12 41.80182 -88.64308 4436 ft 117 kts 281°
2026-04-26 20:12 41.80335 -88.65378 4522 ft 119 kts 267°
2026-04-26 20:12 41.80380 -88.66465 4716 ft 114 kts 265°
2026-04-26 20:13 41.80407 -88.67506 4864 ft 112 kts 263°
2026-04-26 20:13 41.80402 -88.68516 5053 ft 102 kts 255°
2026-04-26 20:13 41.80332 -88.69471 5141 ft 106 kts 255°
2026-04-26 20:13 41.80240 -88.70468 5262 ft 109 kts 259°
2026-04-26 20:14 41.80250 -88.71485 5435 ft 110 kts 262°
2026-04-26 20:14 41.80257 -88.72503 5540 ft 109 kts 261°
2026-04-26 20:14 41.80163 -88.73420 5634 ft 106 kts 246°
2026-04-26 20:14 41.79933 -88.74245 5518 ft 118 kts 236°
2026-04-26 20:15 41.79583 -88.75024 5575 ft 113 kts 234°
2026-04-26 20:15 41.79091 -88.75809 5639 ft 112 kts 217°
2026-04-26 20:15 41.78429 -88.76482 5514 ft 115 kts 211°
2026-04-26 20:15 41.77889 -88.77157 5777 ft 99 kts 233°
2026-04-26 20:16 41.77716 -88.78071 5894 ft 110 kts 260°
2026-04-26 20:16 41.77782 -88.79122 5956 ft 115 kts 271°
2026-04-26 20:16 41.77870 -88.80160 6372 ft 109 kts 263°
2026-04-26 20:16 41.77972 -88.81180 6537 ft 116 kts 271°
2026-04-26 20:17 41.78111 -88.82248 6774 ft 116 kts 271°
2026-04-26 20:17 41.78211 -88.83308 6859 ft 97 kts 247°
2026-04-26 20:17 41.77893 -88.83364 6910 ft 87 kts 90°
2026-04-26 20:17 41.78227 -88.82962 6873 ft 112 kts
2026-04-26 20:18 41.78691 -88.83756 7138 ft 79 kts 219°
2026-04-26 20:18 41.78309 -88.83587 7178 ft 84 kts 108°
2026-04-26 20:18 41.78773 -88.82987 7143 ft 132 kts 350°
2026-04-26 20:18 41.79379 -88.83750 7164 ft 120 kts 276°
2026-04-26 20:19 41.79501 -88.84876 7043 ft 122 kts 268°
2026-04-26 20:19 41.79582 -88.86007 6930 ft 121 kts 267°
2026-04-26 20:19 41.79684 -88.87068 6865 ft 110 kts 269°
2026-04-26 20:19 41.79895 -88.88019 6953 ft 109 kts 307°
2026-04-26 20:20 41.80579 -88.88099 6931 ft 108 kts 50°
2026-04-26 20:20 41.80558 -88.87389 6842 ft 80 kts 167°
2026-04-26 20:20 41.80207 -88.87862 6930 ft 93 kts 283°
2026-04-26 20:20 41.80789 -88.88285 6805 ft 110 kts 25°
2026-04-26 20:21 41.81092 -88.87596 6645 ft 90 kts 135°
2026-04-26 20:21 41.80650 -88.87608 6571 ft 92 kts 259°
2026-04-26 20:21 41.80746 -88.88560 6393 ft 108 kts 270°
2026-04-26 20:21 41.80826 -88.89517 6701 ft 101 kts 267°
2026-04-26 20:22 41.80872 -88.90486 6680 ft 101 kts 244°
2026-04-26 20:22 41.80433 -88.90984 6835 ft 83 kts 182°
2026-04-26 20:22 41.79841 -88.90971 6731 ft 88 kts 178°
2026-04-26 20:22 41.79234 -88.90937 6611 ft 83 kts 178°
2026-04-26 20:23 41.78797 -88.90897 6820 ft 38 kts 171°
2026-04-26 20:23 41.78380 -88.90774 6359 ft 95 kts 178°
2026-04-26 20:23 41.77802 -88.90770 6412 ft 76 kts 178°
2026-04-26 20:23 41.77243 -88.90736 6401 ft 87 kts 176°
2026-04-26 20:24 41.76622 -88.90681 6468 ft 89 kts 176°
2026-04-26 20:24 41.76018 -88.90597 6649 ft 84 kts 175°
2026-04-26 20:24 41.75447 -88.90662 7040 ft 93 kts 182°
2026-04-26 20:24 41.74742 -88.90646 6906 ft 110 kts 178°
2026-04-26 20:25 41.73955 -88.90562 6809 ft 116 kts 175°
2026-04-26 20:25 41.73410 -88.90515 6692 ft 118 kts 178°
2026-04-26 20:25 41.72350 -88.90437 6780 ft 84 kts 174°
2026-04-26 20:25 41.72166 -88.90311 6633 ft 43 kts 298°
2026-04-26 20:26 41.72577 -88.91279 5695 ft 119 kts 279°
2026-04-26 20:26 41.72605 -88.92288 5807 ft 97 kts 218°
2026-04-26 20:26 41.72035 -88.92522 5920 ft 87 kts 176°
2026-04-26 20:26 41.71425 -88.92405 6014 ft 85 kts 170°
2026-04-26 20:27 41.71131 -88.92258 6292 ft 67 kts 159°
2026-04-26 20:27 41.70461 -88.91955 6416 ft 75 kts 172°
2026-04-26 20:27 41.69881 -88.91875 6436 ft 87 kts 179°
2026-04-26 20:27 41.69561 -88.91516 6855 ft 61 kts 77°
2026-04-26 20:28 41.70224 -88.91536 6412 ft 129 kts 348°
2026-04-26 20:28 41.70665 -88.91815 6737 ft 89 kts 289°
2026-04-26 20:28 41.70217 -88.92272 6647 ft 92 kts 174°
2026-04-26 20:28 41.69538 -88.92169 6771 ft 96 kts 173°
2026-04-26 20:29 41.68861 -88.91997 6746 ft 105 kts 171°
2026-04-26 20:29 41.68148 -88.91857 6733 ft 106 kts 175°
2026-04-26 20:29 41.67387 -88.91748 6620 ft 113 kts 174°
2026-04-26 20:29 41.66855 -88.91676 6505 ft 118 kts 175°
2026-04-26 20:30 41.66231 -88.91617 7197 ft 13 kts 135°
2026-04-26 20:30 41.66240 -88.90944 5812 ft 132 kts 110°
2026-04-26 20:30 41.66033 -88.89876 5969 ft 107 kts 111°
2026-04-26 20:30 41.65604 -88.89361 6232 ft 83 kts 175°
2026-04-26 20:31 41.64964 -88.89333 6151 ft 102 kts 180°
2026-04-26 20:31 41.64237 -88.89302 6102 ft 108 kts 177°
2026-04-26 20:31 41.63483 -88.89175 6146 ft 107 kts 169°
2026-04-26 20:31 41.62776 -88.88908 6198 ft 107 kts 168°
2026-04-26 20:32 41.62081 -88.88806 6443 ft 94 kts 179°
2026-04-26 20:32 41.61349 -88.88774 6283 ft 114 kts 177°
2026-04-26 20:32 41.60534 -88.88653 6191 ft 118 kts 168°
2026-04-26 20:32 41.59812 -88.88201 6247 ft 108 kts 155°
2026-04-26 20:33 41.59127 -88.87933 6344 ft 107 kts 174°
2026-04-26 20:33 41.58619 -88.87891 6267 ft 113 kts 180°
2026-04-26 20:33 41.57794 -88.87913 6054 ft 122 kts 180°
2026-04-26 20:33 41.56642 -88.87971 5760 ft 127 kts 184°
2026-04-26 20:34 41.56089 -88.87997 5930 ft 103 kts 179°
2026-04-26 20:34 41.55197 -88.87969 6151 ft 99 kts 180°
2026-04-26 20:34 41.54468 -88.87972 6096 ft 110 kts 179°
2026-04-26 20:34 41.54075 -88.87893 6826 ft 17 kts 114°
2026-04-26 20:35 41.54702 -88.88193 5704 ft 147 kts 347°
2026-04-26 20:35 41.55640 -88.88364 5653 ft 136 kts 353°
2026-04-26 20:35 41.56262 -88.88504 5732 ft 133 kts 347°
2026-04-26 20:35 41.57471 -88.88722 5863 ft 132 kts 347°
2026-04-26 20:36 41.58304 -88.89245 5855 ft 135 kts 310°
2026-04-26 20:36 41.58601 -88.89929 5899 ft 125 kts 272°
2026-04-26 20:36 41.58351 -88.90948 5898 ft 116 kts 239°
2026-04-26 20:36 41.58198 -88.91939 6143 ft 111 kts 255°
2026-04-26 20:37 41.58106 -88.92999 6167 ft 113 kts 252°
2026-04-26 20:37 41.57739 -88.94250 6267 ft 116 kts 244°
2026-04-26 20:37 41.57627 -88.94944 6380 ft 111 kts 254°
2026-04-26 20:37 41.57575 -88.96072 6407 ft 118 kts 260°
2026-04-26 20:38 41.57573 -88.96807 7035 ft 23 kts 229°
2026-04-26 20:38 41.57428 -88.96350 5547 ft 155 kts 105°
2026-04-26 20:38 41.57393 -88.95118 5595 ft 117 kts 92°
2026-04-26 20:38 41.57527 -88.94095 5469 ft 114 kts 88°
2026-04-26 20:39 41.57684 -88.93081 5415 ft 106 kts 90°
2026-04-26 20:39 41.57795 -88.92156 5413 ft 96 kts 102°
2026-04-26 20:39 41.57790 -88.91263 5396 ft 97 kts 99°
2026-04-26 20:39 41.57842 -88.90314 5386 ft 109 kts 97°
2026-04-26 20:40 41.57855 -88.89287 5438 ft 111 kts 100°
2026-04-26 20:40 41.57868 -88.88244 5479 ft 114 kts 99°
2026-04-26 20:40 41.57889 -88.87170 5488 ft 117 kts 98°
2026-04-26 20:40 41.57916 -88.86068 5486 ft 120 kts 96°
2026-04-26 20:41 41.57944 -88.84950 5488 ft 120 kts 97°
2026-04-26 20:41 41.57974 -88.83849 5488 ft 117 kts 97°
2026-04-26 20:41 41.57908 -88.82810 5494 ft 110 kts 125°
2026-04-26 20:41 41.57394 -88.82099 5494 ft 104 kts 143°
2026-04-26 20:42 41.56860 -88.81437 5491 ft 104 kts 146°
2026-04-26 20:42 41.56210 -88.81248 5493 ft 101 kts 189°
2026-04-26 20:42 41.55516 -88.81418 5487 ft 101 kts 188°
2026-04-26 20:42 41.54821 -88.81579 5485 ft 103 kts 189°
2026-04-26 20:43 41.54133 -88.81738 5580 ft 98 kts 189°
2026-04-26 20:43 41.53483 -88.81880 5672 ft 92 kts 188°
2026-04-26 20:43 41.52865 -88.82031 5760 ft 89 kts 188°
2026-04-26 20:43 41.52257 -88.82168 5869 ft 89 kts 188°
2026-04-26 20:44 41.51652 -88.82297 5988 ft 88 kts 188°
2026-04-26 20:44 41.51047 -88.82438 6111 ft 87 kts 188°
2026-04-26 20:44 41.50455 -88.82580 6232 ft 85 kts 188°
2026-04-26 20:44 41.49872 -88.82718 6355 ft 86 kts 188°
2026-04-26 20:45 41.49281 -88.82853 6455 ft 88 kts 188°
2026-04-26 20:45 41.48652 -88.83002 6465 ft 94 kts 189°
2026-04-26 20:45 41.48007 -88.83161 6466 ft 96 kts 188°
2026-04-26 20:45 41.47357 -88.83317 6466 ft 96 kts 188°
2026-04-26 20:46 41.46683 -88.83472 6467 ft 101 kts 188°